This is the latest recevied weather packets stored in our database for station/object CE3MXM-13. If no packets are shown the sender has not sent any weather packets the latest 10 day(s).
| Time | Temp. | Humidity | Pressure | Rain* | Wind** | Luminosity | Snow |
|---|---|---|---|---|---|---|---|
| 1777982400 | 11.11° C | 75% | 1010.9 hPa | - | - | - | - |
| 1777982100 | 11.11° C | 76% | 1011.1 hPa | - | - | - | - |
| 1777981800 | 11.11° C | 76% | 1010.9 hPa | - | - | - | - |
| 1777981500 | 11.11° C | 76% | 1010.6 hPa | - | - | - | - |
| 1777981199 | 11.11° C | 73% | 1010.7 hPa | - | - | - | - |
| 1777980899 | 11.11° C | 74% | 1010.9 hPa | - | - | - | - |
| 1777980599 | 10.56° C | 77% | 1010.9 hPa | - | - | - | - |
| 1777980299 | 10° C | 78% | 1011.1 hPa | - | - | - | - |
| 1777980000 | 10° C | 84% | 1010.9 hPa | - | - | - | - |
| 1777979699 | 10° C | 84% | 1010.8 hPa | - | - | - | - |
| 1777979399 | 10° C | 85% | 1010.8 hPa | - | - | - | - |
| 1777979099 | 10° C | 85% | 1011 hPa | - | - | - | - |
| 1777978799 | 10° C | 85% | 1010.9 hPa | - | - | - | - |
| 1777978499 | 10° C | 85% | 1011 hPa | - | - | - | - |
| 1777978199 | 10° C | 85% | 1010.9 hPa | - | - | - | - |
| 1777977899 | 10° C | 84% | 1010.8 hPa | - | - | - | - |
| 1777977599 | 9.44° C | 85% | 1010.9 hPa | - | - | - | - |
| 1777977299 | 10° C | 85% | 1010.7 hPa | - | - | - | - |
| 1777976998 | 9.44° C | 85% | 1010.9 hPa | - | - | - | - |
| 1777976698 | 9.44° C | 84% | 1010.6 hPa | - | - | - | - |
| 1777976398 | 9.44° C | 84% | 1010.6 hPa | - | - | - | - |
| 1777976098 | 9.44° C | 85% | 1010.3 hPa | - | - | - | - |
| 1777975798 | 9.44° C | 84% | 1010.4 hPa | - | - | - | - |
| 1777975498 | 9.44° C | 85% | 1010.4 hPa | - | - | - | - |
| 1777975198 | 9.44° C | 84% | 1010.3 hPa | - | - | - | - |
* Rain since midnight (hover to see other rain measurements)
** Current wind speed in m/s (hover to see current wind gust speed)